Fort Yukon, AK

6:41 PM AKDT on August 16, 2017 (GMT -0800)
Fort Yukon

Weather History for PFYU - March, 2013

Change the Weather History Date:

Sunday, March 24, 2013

  Actual Average Record
Temperature  
Mean Temperature -12 °F -  
Max Temperature 7 °F 12 °F 37 °F (1999)
Min Temperature -32 °F -5 °F -32 °F (1997)
Degree Days  
Heating Degree Days 78    
Moisture  
Dew Point -15 °F    
Average Humidity 49    
Maximum Humidity 100    
Minimum Humidity 26    
Precipitation  
Precipitation 0.00 in - - ()
Sea Level Pressure  
Sea Level Pressure 29.97 in    
Wind  
Wind Speed 3 mph (NNE)    
Max Wind Speed 9 mph    
Max Gust Speed -    
Visibility 9 miles    
Events      
Averages and records for this station are not official NWS values.
T = Trace of Precipitation, MM = Missing Value Source: NWS Daily Summary

Daily Weather History Graph

Daily Weather History Graph

Search for Another Location

Airport or City:

Trip Planner

Search our weather history database for the weather conditions in past years. The results will help you decide how hot, cold, wet, or windy it might be!

Date:

Astronomy

Mar. 24, 2013 Rise Set
Actual Time 7:23 AM AKDT 8:12 PM AKDT
Civil Twilight 6:30 AM AKDT 9:06 PM AKDT
Nautical Twilight 5:23 AM AKDT 10:14 PM AKDT
Astronomical Twilight 3:57 AM AKDT 11:41 PM AKDT
Moon 5:04 PM AKDT (3/24) 6:34 AM AKDT (3/24)
Length of Visible Light 14h 35m
Length of Day
12h 49m
Waxing Gibbous, 92% of the Moon is Illuminated
Mar 24
Waxing Gibbous
Mar 27
Full
Apr 2
Last Quarter
Apr 10
New
Apr 18
First Quarter

Hourly Weather History & Observations

Time (AKDT) Temp. Windchill Dew Point Humidity Pressure Visibility Wind Dir Wind Speed Gust Speed Precip Events Conditions
12:16 AM -20.2 °F - -27.4 °F 69% 30.05 in 10.0 mi Calm Calm - N/A   Clear
12:36 AM -20.2 °F - -29.2 °F 63% 30.05 in 10.0 mi Calm Calm - N/A   Clear
12:56 AM -23.8 °F - - N/A% 30.05 in 10.0 mi Calm Calm - N/A   Clear
1:16 AM -23.8 °F - - N/A% 30.05 in 4.0 mi Calm Calm - N/A   Clear
1:36 AM -25.6 °F - - N/A% 30.05 in 2.5 mi Calm Calm - N/A   Clear
1:56 AM -25.6 °F - - N/A% 30.05 in 3.0 mi Calm Calm - N/A   Clear
2:16 AM -27.4 °F - - N/A% 30.06 in 4.0 mi Calm Calm - N/A   Clear
2:36 AM -27.4 °F - - N/A% 30.06 in 5.0 mi Calm Calm - N/A   Clear
2:56 AM -27.4 °F - - N/A% 30.07 in 10.0 mi Calm Calm - N/A   Clear
3:16 AM -29.2 °F - - N/A% 30.07 in 5.0 mi Calm Calm - N/A   Clear
3:36 AM -29.2 °F - - N/A% 30.06 in 7.0 mi Calm Calm - N/A   Clear
3:56 AM -29.2 °F - - N/A% 30.05 in 10.0 mi Calm Calm - N/A   Clear
4:16 AM -29.2 °F - - N/A% 30.06 in 10.0 mi Calm Calm - N/A   Clear
4:56 AM -31.0 °F - - N/A% 30.05 in 10.0 mi Calm Calm - N/A   Clear
5:16 AM -29.2 °F - - N/A% 30.05 in 10.0 mi Calm Calm - N/A   Clear
5:36 AM -31.0 °F - - N/A% 30.05 in 10.0 mi Calm Calm - N/A   Clear
5:56 AM -31.0 °F - - N/A% 30.05 in 10.0 mi Calm Calm - N/A   Clear
6:16 AM -29.2 °F - - N/A% 30.05 in 10.0 mi Calm Calm - N/A   Clear
6:36 AM -31.0 °F - - N/A% 30.04 in 10.0 mi Calm Calm - N/A   Clear
6:56 AM -31.0 °F - - N/A% 30.04 in 10.0 mi Calm Calm - N/A   Clear
7:16 AM -29.2 °F - - N/A% 30.05 in 10.0 mi Calm Calm - N/A   Clear
7:36 AM -29.2 °F - - N/A% 30.04 in 10.0 mi Calm Calm - N/A   Clear
7:56 AM -25.6 °F -37.1 °F -25.6 °F 100% 30.04 in 10.0 mi NNE 3.5 mph - N/A   Clear
8:16 AM -23.8 °F -35.0 °F - N/A% 30.04 in 10.0 mi NE 3.5 mph - N/A   Clear
8:36 AM -20.2 °F -33.5 °F - N/A% 30.03 in 10.0 mi NE 4.6 mph - N/A   Clear
9:16 AM -16.6 °F -31.3 °F - N/A% 30.03 in 10.0 mi NE 5.8 mph - N/A   Clear
9:36 AM -14.8 °F -29.1 °F -29.2 °F 48% 30.03 in 10.0 mi NE 5.8 mph - N/A   Clear
9:56 AM -13.0 °F -28.6 °F -23.8 °F 59% 30.02 in 10.0 mi NE 6.9 mph - N/A   Clear
10:16 AM -11.2 °F -26.4 °F -14.8 °F 84% 30.03 in 10.0 mi NE 6.9 mph - N/A   Clear
10:36 AM -9.4 °F -25.6 °F -20.2 °F 59% 30.03 in 10.0 mi NE 8.1 mph - N/A   Clear
10:56 AM -7.6 °F -18.8 °F -16.6 °F 65% 30.02 in 10.0 mi NE 4.6 mph - N/A   Clear
11:16 AM -5.8 °F -19.9 °F -16.6 °F 60% 30.02 in 10.0 mi ENE 6.9 mph - N/A   Clear
11:36 AM -5.8 °F -21.2 °F -16.6 °F 60% 30.02 in 10.0 mi ENE 8.1 mph - N/A   Clear
11:56 AM -2.2 °F -18.0 °F -18.4 °F 46% 30.01 in 10.0 mi NE 9.2 mph - N/A   Clear
12:16 PM -2.2 °F -18.0 °F -16.6 °F 50% 30.00 in 10.0 mi NE 9.2 mph - N/A   Clear
12:36 PM -0.4 °F -14.7 °F -16.6 °F 46% 30.00 in 10.0 mi NNE 8.1 mph - N/A   Clear
12:56 PM -0.4 °F -14.7 °F -16.6 °F 46% 30.00 in 10.0 mi NE 8.1 mph - N/A   Clear
1:16 PM -0.4 °F -14.7 °F -16.6 °F 46% 29.99 in 10.0 mi NE 8.1 mph - N/A   Clear
1:36 PM 1.4 °F -9.9 °F -16.6 °F 43% 29.99 in 10.0 mi NE 5.8 mph - N/A   Clear
1:56 PM 1.4 °F -11.3 °F -16.6 °F 43% 29.98 in 10.0 mi NNE 6.9 mph - N/A   Clear
2:16 PM 1.4 °F -12.5 °F -16.6 °F 43% 29.97 in 10.0 mi NNE 8.1 mph - N/A   Clear
2:36 PM 3.2 °F -11.3 °F -16.6 °F 39% 29.97 in 10.0 mi North 9.2 mph - N/A   Clear
2:56 PM 3.2 °F -11.3 °F -16.6 °F 39% 29.96 in 10.0 mi North 9.2 mph - N/A   Partly Cloudy
3:16 PM 3.2 °F -9.1 °F -14.8 °F 43% 29.95 in 10.0 mi North 6.9 mph - N/A   Scattered Clouds
3:36 PM 3.2 °F -11.3 °F -14.8 °F 43% 29.94 in 10.0 mi North 9.2 mph - N/A   Scattered Clouds
3:56 PM 3.2 °F -9.1 °F -14.8 °F 43% 29.94 in 10.0 mi NE 6.9 mph - N/A   Mostly Cloudy
4:16 PM 3.2 °F -9.1 °F -16.6 °F 39% 29.93 in 10.0 mi North 6.9 mph - N/A   Overcast
4:36 PM 5.0 °F -8.1 °F -14.8 °F 40% 29.92 in 10.0 mi NE 8.1 mph - N/A   Overcast
4:56 PM 5.0 °F -8.1 °F -16.6 °F 36% 29.91 in 10.0 mi North 8.1 mph - N/A   Overcast
5:16 PM 5.0 °F -8.1 °F -14.8 °F 40% 29.91 in 10.0 mi North 8.1 mph - N/A   Overcast
5:36 PM 5.0 °F -5.6 °F -14.8 °F 40% 29.90 in 10.0 mi North 5.8 mph - N/A   Overcast
5:56 PM 5.0 °F -6.9 °F -14.8 °F 40% 29.89 in 10.0 mi North 6.9 mph - N/A   Overcast
6:16 PM 6.8 °F -2.0 °F -14.8 °F 37% 29.89 in 10.0 mi North 4.6 mph - N/A   Overcast
6:36 PM 6.8 °F -3.5 °F -14.8 °F 37% 29.88 in 10.0 mi NNW 5.8 mph - N/A   Overcast
6:56 PM 6.8 °F -3.5 °F -14.8 °F 37% 29.88 in 10.0 mi North 5.8 mph - N/A   Overcast
7:16 PM 6.8 °F -3.5 °F -14.8 °F 37% 29.87 in 10.0 mi North 5.8 mph - N/A   Overcast
7:36 PM 6.8 °F -0.1 °F -13.0 °F 40% 29.87 in 10.0 mi North 3.5 mph - N/A   Overcast
7:56 PM 6.8 °F -0.1 °F -13.0 °F 40% 29.87 in 6.0 mi North 3.5 mph - N/A   Overcast
8:16 PM 6.8 °F -2.0 °F -9.4 °F 48% 29.86 in 5.0 mi North 4.6 mph - N/A   Overcast
8:36 PM 6.8 °F -0.1 °F -9.4 °F 48% 29.86 in 10.0 mi North 3.5 mph - N/A   Overcast
8:56 PM 6.8 °F - -11.2 °F 44% 29.85 in 10.0 mi Calm Calm - N/A   Overcast
9:16 PM 6.8 °F - -11.2 °F 44% 29.85 in 10.0 mi Calm Calm - N/A   Overcast
9:36 PM 6.8 °F - -11.2 °F 44% 29.84 in 10.0 mi Calm Calm - N/A   Overcast
9:56 PM 6.8 °F -0.1 °F -9.4 °F 48% 29.84 in 10.0 mi North 3.5 mph - N/A   Overcast
10:16 PM 6.8 °F -0.1 °F -7.6 °F 52% 29.83 in 10.0 mi NNE 3.5 mph - N/A   Overcast
10:36 PM 6.8 °F -0.1 °F -7.6 °F 52% 29.82 in 6.0 mi North 3.5 mph - N/A   Overcast
10:56 PM 5.0 °F -2.1 °F -5.8 °F 61% 29.82 in 7.0 mi NNE 3.5 mph - N/A   Overcast
11:16 PM 5.0 °F -4.1 °F -2.2 °F 72% 29.81 in 5.0 mi NNE 4.6 mph - N/A   Overcast
11:36 PM 5.0 °F -5.6 °F -4.0 °F 66% 29.80 in 2.0 mi NNE 5.8 mph - N/A   Overcast
11:56 PM 5.0 °F -4.1 °F -7.6 °F 56% 29.80 in 4.0 mi North 4.6 mph - N/A   Overcast